Theta_e
319 319 318 317 317 318 319 320 320 321 322 317 312 314 318 318 318 319 320 321 321 321 324 323 321 323 322 320 320 320 320 320 319 318 316 316 315 316 317 318 319 319 319 318 319 321 320 319 320 321 321 321 321 320 321 318 318 321 320 322 326 328 328 326 324 324 324 322 325 325 325 328 329 329 334 334 332 333 333 332 332 330 328 332 332 331 337
320 320 319 317 316 317 318 319 320 321 321 317 311 314 320 320 319 320 321 321 320 322 323 323 323 324 323 322 323 323 320 319 319 318 317 316 316 317 318 318 317 318 318 319 320 319 319 318 319 320 321 322 321 321 325 324 323 323 323 322 324 327 329 327 323 322 322 322 324 328 330 330 327 329 337 338 335 334 331 331 331 328 328 333 331 329 338
321 320 320 318 317 317 318 319 320 321 322 318 312 314 320 320 318 320 322 321 321 321 322 322 323 325 325 324 324 323 321 321 320 318 317 315 314 317 318 317 317 318 319 320 320 319 318 319 319 319 319 321 320 320 326 328 326 326 327 325 325 328 329 328 325 321 322 325 328 331 334 334 331 334 341 342 340 337 332 329 328 327 330 334 332 332 342
323 321 321 320 317 316 318 319 319 321 322 319 313 314 321 322 321 323 326 324 321 322 324 325 325 326 327 327 325 322 322 321 319 316 315 315 314 316 316 316 318 319 320 322 322 320 319 320 323 323 320 320 320 320 323 327 328 330 327 325 328 331 330 331 333 330 329 332 333 334 336 337 338 340 342 343 341 339 336 328 325 328 330 331 336 341 347
324 323 321 320 319 317 318 319 320 320 321 321 315 313 319 323 324 327 329 325 323 325 326 328 328 326 326 326 324 323 322 320 318 316 314 314 316 317 316 317 318 319 321 323 322 321 323 321 322 322 321 321 320 318 321 325 328 330 326 323 329 332 329 331 336 335 334 335 333 332 333 335 337 338 339 342 342 337 333 328 330 333 327 327 340 348 348
325 324 322 320 319 318 317 319 320 320 321 321 315 312 317 322 326 327 327 326 326 326 326 329 330 328 326 326 323 322 322 320 319 316 315 314 315 317 319 318 318 319 321 322 323 326 325 321 322 323 320 322 321 319 320 321 322 325 324 324 330 332 327 327 334 336 334 334 332 330 331 331 333 334 334 338 341 338 334 335 337 336 328 331 345 351 351
326 325 322 320 319 318 317 318 320 320 321 321 315 312 316 319 322 325 325 325 327 326 325 328 330 328 328 327 324 322 322 322 319 315 315 317 317 317 321 322 318 319 324 327 330 332 326 320 323 326 322 320 322 321 320 320 320 321 323 325 327 328 328 328 333 335 335 334 333 332 332 331 331 331 332 335 339 342 341 341 341 338 338 343 349 350 351
326 325 323 320 319 318 317 318 321 320 322 320 315 313 315 316 319 321 322 323 325 326 328 329 329 326 327 327 325 322 321 322 321 317 317 318 317 317 321 322 317 318 326 329 328 329 328 323 323 325 323 321 323 323 320 319 320 320 322 324 323 326 330 330 332 333 333 334 333 332 332 331 331 332 332 333 337 341 343 344 343 343 346 348 348 350 351
326 326 324 321 319 318 317 319 321 322 322 319 314 312 313 315 318 321 322 324 326 328 328 328 326 324 324 324 325 324 323 320 321 321 318 317 317 318 320 319 317 318 322 324 321 321 326 324 320 321 321 319 319 321 319 319 320 321 323 324 324 327 328 328 330 333 332 333 333 332 330 331 334 335 333 333 335 340 344 345 345 346 348 348 348 350 351
326 327 325 322 319 318 317 319 322 323 321 318 314 312 311 314 318 321 323 324 324 326 327 325 324 323 325 326 326 327 326 322 321 324 322 316 315 317 318 317 319 320 320 321 319 317 319 318 316 317 317 315 315 316 316 317 320 324 324 324 326 328 328 328 330 330 330 331 333 332 329 330 335 337 334 332 333 337 342 345 344 344 347 349 349 349 348
325 326 326 322 320 319 317 319 322 323 321 318 315 313 311 313 316 320 323 323 321 323 325 324 323 325 328 328 328 327 327 324 322 324 324 319 315 316 317 317 320 322 321 319 317 316 316 316 316 315 315 317 317 317 317 318 320 322 324 324 327 327 327 329 328 328 330 331 330 331 329 328 334 338 335 332 332 334 338 342 341 340 344 347 348 347 346
325 326 326 323 320 319 318 318 320 321 320 318 315 312 311 311 313 317 321 323 321 322 323 322 324 327 328 327 327 326 328 328 325 324 323 319 316 315 315 316 321 323 320 316 315 316 316 316 318 320 318 318 319 319 320 320 320 319 319 323 327 327 326 329 328 327 330 330 327 331 333 331 332 335 333 332 332 332 334 336 337 337 340 343 345 345 344
324 326 326 323 321 320 318 317 319 320 319 317 315 312 311 311 313 318 321 322 321 322 322 320 321 323 324 325 326 327 328 328 325 323 323 321 318 316 314 316 321 320 317 316 316 317 319 322 325 324 321 320 320 320 321 320 320 320 319 321 326 328 326 327 326 325 327 328 328 331 334 332 330 329 330 331 332 332 334 337 336 335 336 340 343 344 344
324 326 326 323 320 320 318 317 318 320 320 318 316 313 311 312 313 317 319 320 320 321 321 319 320 323 325 326 327 328 328 326 321 318 320 319 317 316 316 315 317 317 316 316 316 317 321 326 326 322 320 321 320 320 321 320 319 321 321 320 325 328 328 327 325 324 327 329 330 331 333 333 333 331 329 329 330 332 336 339 338 334 334 338 341 343 343
324 325 325 324 321 320 319 317 318 320 320 319 317 313 312 312 312 314 318 320 320 321 319 318 319 324 325 325 325 325 326 325 321 318 318 317 315 316 316 314 315 316 315 316 320 323 324 323 321 317 317 318 318 319 322 323 320 320 321 321 323 327 330 329 325 324 327 329 331 333 334 334 334 331 327 327 329 330 332 337 339 336 336 339 341 341 342
323 324 325 323 321 320 319 317 318 319 320 320 318 313 312 313 313 315 319 321 320 319 319 317 318 322 323 323 324 325 325 325 324 323 323 320 314 314 315 313 315 316 314 316 322 327 325 322 320 318 316 318 319 319 321 323 322 320 321 323 323 325 330 331 325 324 327 327 328 333 334 333 331 329 327 328 329 328 330 336 339 336 336 341 341 341 342
322 323 325 324 321 320 319 317 318 319 319 320 318 313 312 313 313 314 318 320 320 319 317 315 317 319 321 320 322 324 324 324 322 323 326 322 316 315 315 313 315 315 314 322 327 326 323 321 320 318 318 319 321 319 320 324 324 321 322 325 325 325 328 327 323 324 327 326 325 329 331 330 329 328 329 329 329 328 330 333 335 335 336 340 341 341 342
321 322 324 324 322 320 319 318 318 319 319 320 317 313 312 313 313 313 315 318 319 319 317 317 319 321 321 321 322 322 322 323 321 321 324 322 318 319 316 314 317 314 316 329 334 325 320 320 319 319 319 320 320 319 321 324 323 322 325 327 327 327 328 327 324 326 328 326 325 327 329 330 330 329 329 329 327 328 327 328 332 335 337 339 340 340 340
320 321 324 324 322 321 320 319 319 319 319 320 317 312 312 313 313 313 313 315 317 318 317 318 320 320 320 320 320 319 319 321 320 321 325 323 319 320 317 315 318 317 318 328 331 323 319 320 320 320 320 320 321 321 321 322 322 321 324 325 324 326 326 326 326 327 327 327 326 326 326 328 329 329 329 327 325 325 328 331 333 335 337 337 338 338 338
320 321 323 323 321 321 320 320 320 320 319 319 316 311 311 313 313 313 313 313 315 316 315 314 315 315 316 316 317 317 318 319 319 320 323 322 318 319 318 318 319 319 319 323 324 320 320 321 321 321 321 321 321 321 321 322 321 321 323 324 324 324 324 325 327 327 327 327 327 327 327 328 328 328 328 328 328 330 333 335 336 336 336 337 337 338 338
320 320 321 322 321 321 321 321 321 320 319 320 316 310 310 312 313 313 313 313 314 315 315 314 314 314 315 316 317 317 318 319 319 320 320 319 317 318 321 322 321 321 323 323 321 320 322 323 321 321 321 321 320 321 322 323 322 321 323 324 325 325 325 326 327 326 326 327 328 329 330 328 327 329 330 331 333 335 336 337 337 336 336 337 337 337 337
319 320 321 322 321 320 321 321 321 320 320 320 317 310 310 312 313 313 313 313 313 314 314 314 314 313 313 314 314 315 316 316 317 317 317 318 318 319 320 321 321 320 323 324 322 323 323 322 321 322 322 321 321 321 322 323 321 322 323 324 325 325 325 326 327 326 326 328 329 330 330 328 328 330 332 333 335 336 337 338 337 336 336 336 337 337 337
318 319 320 321 320 319 319 319 320 319 319 319 316 310 309 312 313 313 313 313 313 313 313 313 314 313 313 313 313 314 314 313 314 315 316 317 319 319 319 320 321 322 322 322 323 326 326 324 323 323 324 323 323 322 321 320 321 324 325 324 325 325 324 326 328 327 327 328 329 329 330 330 330 332 334 335 336 337 338 338 338 337 336 336 336 337 337
316 317 319 320 320 318 318 317 318 318 319 319 316 311 309 311 313 313 313 312 312 314 315 315 315 314 314 315 316 317 316 315 316 319 319 318 319 321 321 321 322 323 322 322 322 323 324 323 322 322 323 323 323 323 322 321 323 325 325 326 326 325 325 327 329 328 329 330 330 330 330 331 332 334 335 336 337 337 338 338 338 337 337 337 337 337 336
314 317 319 320 319 318 317 317 317 318 319 318 315 311 308 310 311 312 312 313 313 314 316 317 316 315 315 317 318 319 320 320 321 323 323 321 320 321 322 322 322 322 322 322 321 320 321 324 324 323 324 323 321 322 323 323 323 325 325 327 327 326 326 328 328 327 328 330 330 329 329 331 333 335 336 336 338 337 337 337 336 336 336 336 336 336 336
318 319 320 319 318 317 317 317 317 318 317 315 311 309 308 308 310 311 312 312 312 313 314 316 316 315 316 317 317 318 321 323 323 323 323 322 321 321 321 321 322 322 321 321 321 319 321 325 327 326 324 322 321 323 324 322 322 324 325 325 325 325 326 328 328 328 329 329 329 329 330 331 333 334 335 336 337 337 337 336 336 336 336 335 335 335 335
320 320 320 319 318 318 317 317 318 317 315 311 309 309 309 309 310 311 312 313 314 315 316 316 317 316 314 315 317 318 320 322 322 322 322 321 321 321 321 321 321 321 320 321 320 319 321 324 325 324 324 322 321 323 323 322 323 324 325 324 325 327 327 327 328 329 330 330 331 330 331 333 333 334 335 336 336 337 336 337 336 336 336 335 334 334 333
320 321 320 319 319 319 319 318 316 313 311 309 309 309 309 310 311 312 313 313 314 315 315 315 316 315 314 315 318 320 321 322 322 322 322 321 320 320 321 321 320 320 320 320 321 323 325 324 322 323 322 322 322 323 323 323 324 325 325 326 326 328 328 328 328 327 328 330 331 329 331 333 332 332 334 335 335 336 336 336 336 336 336 334 333 332 331
320 320 320 320 319 319 317 314 311 309 309 309 309 310 311 312 313 313 314 313 313 313 313 314 315 316 316 318 320 321 322 322 321 321 320 319 319 320 320 320 319 319 319 319 320 323 324 322 322 323 323 322 323 324 324 324 325 325 325 325 325 326 325 325 326 326 326 328 329 327 330 332 331 330 332 333 334 334 335 335 336 335 336 335 332 330 329
320 320 320 319 317 314 312 310 309 309 309 310 310 311 312 314 315 314 314 314 313 312 313 314 316 316 314 316 320 322 322 321 320 320 320 318 319 321 320 319 319 318 318 318 319 320 322 323 322 321 321 320 323 325 325 325 325 325 325 323 324 325 324 323 324 325 325 327 328 327 329 330 329 328 329 330 330 330 331 334 335 335 335 335 333 331 330
320 320 318 316 312 310 309 308 308 309 310 311 311 311 313 314 315 314 314 313 312 312 313 315 317 316 315 317 320 322 321 319 318 319 319 319 321 321 320 319 319 318 318 319 318 320 323 323 322 321 320 320 322 326 326 325 325 326 326 324 323 325 325 323 323 324 326 327 327 327 329 329 329 329 330 329 328 326 327 330 333 334 334 334 333 333 333
319 318 316 312 309 309 309 308 309 311 311 311 312 312 313 314 314 314 313 312 312 312 314 316 318 319 320 321 321 321 320 319 319 319 319 320 321 320 319 319 319 319 319 320 320 322 323 322 322 322 321 320 323 326 327 325 325 326 326 324 324 324 324 324 323 324 326 327 326 328 330 330 330 330 330 329 328 327 326 328 330 331 332 332 332 332 332
317 316 313 310 309 310 309 309 310 311 311 311 312 312 312 313 313 313 312 311 312 313 314 317 319 320 322 323 322 320 320 320 319 320 321 321 320 320 321 321 321 320 321 320 322 324 323 322 322 322 321 320 323 326 327 326 325 325 324 324 325 325 325 325 324 324 326 327 325 326 328 329 328 328 328 328 328 328 327 328 329 329 329 329 330 329 329
315 312 309 309 310 310 310 310 311 311 311 311 312 313 313 313 313 313 312 311 312 313 314 317 319 320 322 322 322 320 320 320 320 321 322 321 320 320 321 321 321 321 321 321 322 323 323 323 323 323 321 320 321 323 325 325 325 323 324 325 325 325 325 325 324 324 326 327 325 324 325 326 327 327 327 327 328 328 328 328 328 328 327 327 327 326 324
311 309 309 310 310 311 311 311 312 311 311 311 312 313 313 313 313 314 313 312 313 315 316 318 319 319 322 323 322 320 320 320 321 321 322 321 320 320 321 320 321 322 321 320 321 324 325 324 323 323 323 322 321 322 324 325 323 323 324 325 325 324 325 325 324 324 326 326 325 325 325 325 326 326 326 327 327 327 327 327 327 326 325 323 322 320 317
309 309 311 311 311 311 312 312 312 311 311 312 313 313 313 313 313 314 313 313 314 316 317 318 319 319 321 323 323 321 320 321 321 321 321 321 321 320 319 320 322 322 321 321 322 324 323 322 322 323 324 323 324 325 324 322 321 322 324 325 324 324 324 324 324 324 326 326 326 325 325 325 325 325 325 326 326 325 326 325 324 323 320 318 315 313 310
309 311 311 311 311 311 312 313 313 313 312 313 314 314 313 313 313 314 314 314 314 315 315 317 318 319 320 322 322 321 320 321 321 321 321 321 322 321 320 322 324 323 321 323 324 323 322 321 322 323 324 325 325 325 323 320 320 322 322 322 324 324 324 324 324 325 325 326 326 325 325 325 325 325 325 325 324 324 324 323 322 320 318 314 311 309 308
310 311 311 311 311 312 313 314 314 314 314 314 314 314 314 314 314 314 314 314 315 315 315 315 317 317 318 319 320 321 321 321 322 322 322 322 322 322 322 324 325 323 322 323 324 322 322 323 323 323 324 324 323 322 322 322 322 322 321 321 323 323 324 324 324 325 326 326 326 326 325 325 325 325 325 325 324 323 323 322 321 320 317 312 309 308 309
311 311 310 310 311 312 314 315 315 315 315 314 314 315 316 316 316 315 315 315 316 316 316 316 317 317 318 318 319 320 321 321 322 323 323 323 322 323 324 323 323 322 322 323 323 322 323 326 324 323 324 326 325 322 322 322 322 322 321 321 322 323 324 323 323 323 324 323 324 325 326 326 326 325 325 324 323 322 322 322 321 320 317 312 310 309 310
310 310 310 311 312 313 315 315 315 315 315 315 315 316 317 317 316 315 315 316 317 317 317 318 317 316 316 317 318 320 320 321 322 323 323 323 322 323 324 323 322 322 324 324 322 321 323 325 324 323 325 327 326 322 321 321 322 322 322 322 321 323 324 323 323 322 322 321 322 325 326 326 326 326 325 325 324 322 322 322 322 320 317 313 312 312 312
309 310 310 311 313 314 315 315 315 315 315 316 316 316 316 317 316 315 315 316 317 317 317 318 318 318 317 317 317 319 320 321 321 322 324 324 322 321 323 322 320 321 324 324 322 322 323 324 324 324 325 326 324 321 321 322 322 321 322 322 322 323 324 324 324 324 323 323 324 325 326 326 326 326 326 325 324 322 322 322 323 321 317 314 313 313 313
310 310 311 312 314 315 315 315 316 316 316 317 317 317 316 316 316 316 316 316 317 316 317 318 319 319 318 316 316 317 318 321 322 322 325 325 322 320 322 322 321 322 324 323 322 322 323 322 323 324 324 323 322 321 322 322 321 321 322 322 323 323 324 325 324 324 323 324 324 325 326 326 326 326 326 325 324 322 321 321 322 321 318 314 314 314 314
310 311 311 313 315 315 316 316 316 317 317 317 318 318 317 316 316 316 316 316 315 315 316 317 317 317 316 316 316 316 318 321 322 323 324 324 322 322 323 322 322 322 322 321 322 324 324 323 324 324 323 321 321 321 322 322 321 322 322 322 323 324 324 324 324 324 324 324 325 325 326 326 326 326 325 325 324 322 321 320 320 319 317 314 314 314 314
310 311 312 314 315 315 316 317 317 317 318 317 317 318 318 318 317 316 316 316 315 314 315 316 317 316 315 316 317 317 318 320 322 323 323 322 322 323 325 324 323 322 321 322 323 324 323 323 324 324 322 322 322 321 321 322 322 322 322 322 323 324 324 324 324 325 324 324 325 325 325 325 325 326 326 325 323 322 321 320 319 317 315 315 315 314 314
311 311 312 314 314 315 317 317 316 317 318 317 316 317 318 318 317 316 316 316 315 314 314 315 315 315 315 316 316 318 320 321 322 323 323 322 322 323 323 322 322 321 321 323 324 322 322 322 324 323 322 322 322 321 321 322 321 321 322 322 322 323 324 325 325 324 324 324 324 323 321 321 322 324 324 324 323 322 320 319 317 316 315 315 315 315 315
311 312 313 315 316 316 316 316 316 316 317 317 316 317 317 317 317 317 316 315 315 315 316 315 314 315 316 315 316 318 321 321 322 322 322 322 322 322 321 321 322 322 323 323 323 322 322 324 324 323 321 321 321 321 321 321 322 321 322 322 322 323 323 324 324 324 324 323 323 322 320 318 319 321 323 323 322 321 319 317 316 316 316 315 315 315 315
312 312 313 315 316 315 315 315 316 317 317 316 317 317 317 317 317 317 317 316 315 316 316 315 314 314 315 315 316 319 321 322 322 322 321 322 323 322 321 321 323 324 324 324 324 323 323 324 323 321 321 321 321 320 320 320 321 321 321 321 322 322 323 324 325 325 324 323 323 322 322 320 319 320 323 323 321 320 318 317 316 316 316 315 315 315 315
312 313 314 315 315 315 315 316 316 316 316 316 316 316 316 316 317 317 317 317 316 317 317 316 315 315 314 315 316 319 321 322 323 322 320 322 323 323 322 323 323 323 323 323 323 323 324 323 322 320 321 321 321 321 320 320 320 321 321 321 321 322 322 323 324 324 324 324 323 323 323 322 319 320 322 323 321 319 317 316 315 315 315 315 315 316 315
312 313 314 314 314 315 316 316 316 316 316 316 316 315 316 316 317 317 316 316 317 317 316 317 317 316 315 316 318 320 322 323 322 320 320 321 323 323 323 324 324 323 323 322 323 323 323 322 321 321 321 321 321 320 320 320 320 321 320 321 321 321 322 322 323 324 324 324 323 323 323 323 320 319 320 322 321 319 317 316 314 314 314 315 316 316 316
311 312 313 314 315 317 317 317 317 317 317 317 317 316 316 316 317 317 317 317 316 316 316 318 318 317 316 317 318 320 321 322 321 320 320 322 322 322 323 324 324 324 323 323 323 323 321 321 321 321 321 321 320 320 320 320 320 321 321 321 321 321 321 322 323 324 324 323 323 323 324 323 321 319 318 319 320 319 318 316 314 314 315 315 316 316 316
311 312 312 314 315 317 317 317 317 317 318 318 318 317 317 317 317 318 318 318 317 316 317 320 320 318 316 317 318 318 319 321 321 321 322 322 321 321 323 324 323 323 323 322 322 321 321 321 321 321 320 320 320 320 319 320 320 321 321 321 321 322 321 322 322 323 324 324 323 323 323 324 322 320 318 318 319 320 318 316 315 315 316 316 316 316 316
311 312 313 314 315 315 316 316 317 317 318 318 317 317 316 317 317 317 319 320 320 318 318 320 321 319 317 318 319 318 318 320 321 321 322 321 321 321 322 323 323 322 322 322 321 321 320 320 320 320 320 321 321 321 321 320 320 321 322 322 322 322 322 322 322 323 323 323 323 323 323 324 322 321 319 319 319 319 318 317 316 315 316 316 316 316 315
Wind_Speed
25 26 27 29 29 28 28 28 29 29 28 27 23 16 9 6 2 2 3 8 8 3 1 1 0 2 2 2 4 6 4 3 4 3 1 2 1 2 1 2 2 1 0 1 1 1 2 1 2 2 1 2 4 5 8 2 2 1 1 1 1 1 0 0 1 0 2 3 5 4 5 2 6 1 1 2 2 3 2 3 2 4 5 2 2 3 1
25 26 27 28 29 29 27 26 27 28 28 28 25 17 12 8 2 2 3 7 6 1 1 2 1 1 1 2 3 5 4 4 4 3 2 2 1 2 1 2 2 1 1 1 0 1 2 2 2 1 1 1 1 4 6 2 3 1 1 1 2 1 0 0 1 2 4 4 4 2 6 4 1 2 3 3 1 4 1 3 2 4 5 3 4 4 1
25 25 26 28 29 29 28 25 24 25 25 25 23 17 13 8 1 2 2 4 3 0 1 1 1 1 1 2 3 4 3 4 5 5 4 2 1 1 1 2 2 2 1 2 1 1 0 2 1 1 2 2 1 4 4 1 2 1 1 0 0 0 1 1 2 2 2 2 2 1 4 5 5 5 6 6 1 4 2 3 3 4 3 2 3 3 1
25 26 26 27 28 29 28 25 23 22 22 22 20 15 11 6 1 2 2 1 1 2 3 2 0 1 0 1 1 2 2 4 5 5 3 2 2 1 0 1 1 1 1 1 2 3 2 0 1 1 2 1 0 2 4 2 2 2 3 2 1 2 2 2 3 4 4 5 5 3 3 3 5 8 9 8 4 5 5 4 4 4 2 3 2 1 2
27 26 26 27 28 28 28 25 22 20 20 20 18 14 9 4 1 2 2 1 1 2 4 4 2 1 1 1 1 1 2 3 4 2 2 1 1 0 2 1 1 1 2 2 1 2 2 1 1 1 2 2 2 2 2 2 2 2 1 3 1 3 3 4 8 11 9 9 8 7 8 7 7 10 11 10 6 5 9 6 2 1 3 4 2 2 3
27 27 27 27 28 28 28 26 21 18 18 17 15 11 7 3 1 1 2 1 0 1 1 5 4 1 1 1 1 2 1 2 2 1 0 1 1 1 0 1 0 2 2 2 2 0 1 1 1 1 1 2 2 1 2 1 3 4 2 3 1 2 3 3 7 11 10 9 7 8 8 6 7 9 12 12 9 5 8 4 2 3 4 2 5 6 4
28 28 27 28 29 29 29 27 20 16 15 15 13 9 5 3 2 1 2 2 3 4 6 6 4 2 2 2 3 2 1 1 2 1 1 2 1 1 2 1 0 1 3 3 2 2 2 1 1 2 1 1 1 1 0 0 2 3 2 2 2 1 3 4 7 9 9 6 6 8 7 3 6 7 10 13 12 7 3 4 4 5 3 5 10 9 6
27 28 28 29 29 30 31 28 19 13 12 12 11 8 6 4 2 2 4 4 5 5 5 3 2 2 1 2 2 2 2 1 1 2 3 2 1 2 4 3 1 1 2 3 3 4 4 2 1 3 2 0 1 1 1 2 1 1 1 1 2 1 3 5 5 5 5 5 5 6 3 2 3 4 9 13 13 9 2 6 7 5 6 9 11 10 7
26 28 28 29 30 31 32 28 17 10 11 10 9 8 6 5 3 3 3 2 2 2 2 1 1 1 2 2 1 1 2 1 1 3 6 6 4 3 6 6 3 1 1 2 4 6 7 4 2 4 3 1 1 1 2 3 1 0 0 1 2 2 2 4 2 2 3 5 5 2 3 5 1 5 8 11 11 8 2 5 5 4 8 11 10 8 5
25 27 27 29 30 31 33 28 14 7 9 9 7 7 6 5 4 3 1 1 2 1 1 0 1 2 1 1 1 1 1 1 1 3 4 6 6 5 10 9 4 2 2 3 5 7 8 4 1 3 3 2 1 1 2 3 2 1 1 0 1 1 3 2 1 1 4 5 3 3 5 3 1 4 4 6 11 11 3 4 6 4 4 8 6 5 5
25 26 26 28 28 29 32 26 12 6 7 8 8 8 7 5 4 2 0 1 1 0 1 2 2 1 1 2 2 4 3 2 2 3 2 2 4 6 13 11 4 2 4 6 7 7 7 4 1 1 1 2 4 5 3 1 2 2 1 1 1 2 2 2 0 0 3 3 1 3 1 2 2 2 4 2 6 12 8 4 6 7 3 5 7 8 9
24 25 25 26 27 28 29 24 11 6 8 8 9 10 8 5 4 1 1 1 1 0 1 2 2 2 3 4 6 7 7 7 7 8 6 3 2 6 11 7 3 4 7 8 8 7 6 3 1 1 3 4 5 6 6 6 5 3 0 0 2 2 2 1 1 1 2 1 3 1 0 1 2 1 3 5 4 7 9 8 8 8 5 6 10 10 10
23 24 25 25 24 25 26 21 11 7 8 8 9 10 8 6 4 1 1 1 2 1 2 5 8 9 8 7 8 9 11 13 12 11 12 8 5 7 10 5 2 6 9 9 8 7 5 2 1 1 3 5 2 2 5 7 6 4 4 2 1 3 2 1 1 2 2 1 1 0 1 1 3 4 1 3 1 3 6 6 6 7 7 3 8 10 11
22 23 23 23 22 23 23 18 10 7 8 9 9 10 9 6 3 2 1 1 2 1 2 5 6 5 4 4 5 8 10 11 8 5 9 9 8 10 10 6 5 9 11 9 6 5 2 1 0 0 1 2 1 1 2 4 4 5 5 3 1 3 3 2 1 1 1 1 0 1 1 1 2 3 1 2 2 2 2 4 3 2 4 4 4 8 10
22 22 21 20 19 21 22 16 10 7 9 10 9 10 10 7 4 4 3 2 2 3 5 6 3 4 5 6 6 6 6 5 3 1 3 5 6 8 8 6 8 11 10 5 3 2 1 1 1 1 1 1 2 1 1 1 2 5 5 3 3 2 1 2 2 1 1 1 1 1 0 1 2 3 2 2 4 5 5 2 3 1 3 3 2 6 9
22 21 20 19 18 19 20 15 9 7 9 10 10 10 10 8 4 4 5 4 2 2 4 7 4 5 7 8 7 4 3 3 2 1 1 1 3 5 6 6 8 10 8 3 3 2 1 1 1 2 2 1 1 1 1 1 1 2 2 4 6 5 2 1 1 1 2 2 2 2 2 1 2 4 3 3 5 6 8 5 1 2 4 3 3 5 7
22 20 18 18 17 17 17 14 10 9 10 10 10 11 10 8 5 5 6 5 5 7 9 10 10 8 6 5 4 2 2 3 3 1 0 0 2 3 5 6 7 8 7 3 2 1 1 1 1 1 1 1 0 1 0 0 1 2 1 2 5 5 3 1 2 2 3 3 2 1 1 0 2 2 1 3 4 6 6 2 2 3 4 2 0 3 4
22 20 18 18 16 15 15 14 11 11 11 10 10 11 9 8 6 6 7 6 5 8 10 8 8 7 3 2 3 2 3 4 3 2 2 1 1 0 2 4 4 5 4 2 1 1 2 1 1 1 1 1 1 1 1 1 1 1 1 0 1 2 2 0 2 2 3 3 2 1 1 1 1 2 4 2 3 5 3 2 3 4 3 1 2 4 4
21 20 18 17 16 14 13 13 12 12 11 10 10 10 9 8 7 6 9 8 7 9 10 6 6 8 6 6 8 8 7 6 4 3 2 1 2 2 1 3 2 2 2 2 2 1 1 2 0 1 1 2 1 1 1 1 0 0 0 1 1 1 1 0 1 1 1 1 1 1 0 2 3 5 3 1 2 2 0 2 3 4 3 3 5 5 6
20 20 18 16 15 13 13 13 13 13 12 10 9 9 9 9 8 7 9 9 10 16 21 17 15 18 17 14 14 12 10 9 6 3 1 1 4 3 2 3 3 2 2 2 2 1 1 2 1 1 1 1 1 1 1 1 0 0 1 1 0 1 1 1 2 1 1 1 2 1 1 2 4 4 1 2 2 0 4 5 4 4 5 6 7 8 10
19 19 17 15 14 13 14 14 14 13 12 10 9 9 9 9 9 8 10 11 11 14 15 10 10 14 15 14 15 13 12 12 9 5 6 9 9 3 1 1 3 4 2 1 2 1 0 1 1 1 1 1 0 1 1 2 2 1 1 2 1 1 1 0 1 1 1 2 2 0 1 2 4 3 1 1 2 5 6 6 6 6 6 8 11 12 14
18 18 16 14 13 13 14 14 14 13 12 11 11 9 7 7 9 9 11 13 16 18 18 16 18 20 19 18 17 16 17 18 17 16 17 15 10 7 7 6 3 4 4 3 2 1 1 2 2 1 1 1 1 0 0 1 2 2 1 1 1 0 0 0 1 1 1 1 1 2 2 3 3 1 2 4 6 7 6 6 8 9 8 11 14 15 16
18 18 15 13 14 13 14 15 15 13 12 11 11 10 8 7 8 10 12 14 17 22 24 22 22 21 18 16 15 15 18 20 19 20 20 16 10 9 11 8 4 4 5 5 2 1 3 2 1 1 1 2 2 2 1 1 1 2 2 1 1 1 0 1 2 2 1 1 2 2 2 3 3 4 5 6 8 8 8 9 10 10 10 11 13 16 17
18 18 15 13 14 14 14 14 14 13 12 11 11 11 10 8 8 10 11 10 12 15 17 15 15 13 9 7 8 11 14 17 15 13 14 16 14 8 5 7 6 3 3 5 4 4 5 3 1 1 2 2 3 2 2 1 1 2 2 1 0 2 2 1 2 2 3 2 2 2 2 3 4 6 7 8 9 11 11 11 12 12 12 12 14 16 17
15 15 14 13 14 13 12 11 11 11 11 11 11 12 12 11 10 10 9 7 7 6 7 10 11 8 5 6 8 8 9 11 12 11 13 19 21 11 2 3 6 4 3 6 7 6 5 3 1 1 2 3 3 1 0 1 1 2 3 1 1 3 4 2 2 2 1 2 3 2 3 4 5 6 8 9 11 14 15 15 15 16 15 15 15 16 16
13 13 12 12 13 12 11 10 11 11 11 11 12 13 13 12 11 11 10 8 7 7 6 9 9 5 4 7 7 8 10 11 12 13 14 17 20 15 6 2 3 4 6 8 8 6 4 3 1 1 1 3 3 1 1 1 2 1 1 1 2 5 5 2 3 3 2 2 3 5 5 5 5 7 9 11 12 15 17 17 17 17 16 16 16 15 15
12 11 11 12 12 12 12 12 13 12 12 12 12 13 15 14 11 11 10 7 6 5 4 6 10 10 12 10 7 9 11 12 12 13 14 14 17 18 14 8 5 7 10 8 6 5 4 2 1 1 2 4 4 2 1 2 2 1 1 3 4 5 4 2 3 4 2 3 9 10 5 4 6 8 11 13 13 15 17 16 15 15 15 16 17 16 14
10 9 10 11 11 12 13 13 13 12 11 12 13 15 16 14 11 11 11 11 10 8 6 10 18 20 16 9 5 8 9 11 12 13 14 14 14 16 15 11 10 11 9 6 4 3 2 1 2 3 4 6 6 2 2 2 3 1 1 7 9 6 6 7 5 1 0 7 16 14 6 7 12 13 12 14 14 14 15 15 14 14 14 16 18 18 16
9 9 10 10 10 11 13 13 12 12 11 12 13 14 13 11 10 10 11 12 15 14 11 13 17 15 11 6 4 5 7 10 12 13 13 13 13 14 15 15 13 11 7 5 5 2 2 3 4 3 4 7 5 3 1 3 3 1 3 12 15 10 10 12 6 1 3 13 19 15 9 13 17 16 14 15 14 14 16 15 15 15 15 15 17 18 18
8 8 9 9 10 11 12 11 11 12 12 11 10 9 6 6 8 8 9 13 16 13 7 6 7 9 11 9 4 3 4 7 9 12 12 12 12 16 18 16 14 11 7 5 4 2 2 4 3 3 7 8 5 2 2 3 3 1 4 15 17 12 11 11 4 2 8 18 18 13 13 18 20 17 16 16 14 14 16 16 15 16 15 15 15 16 17
10 9 9 9 9 10 10 11 12 12 11 8 6 5 3 3 4 5 7 11 14 10 5 5 9 12 13 8 3 3 3 3 7 11 12 12 13 17 18 15 13 10 7 6 6 4 3 4 3 4 7 7 5 2 2 3 3 1 5 15 18 13 13 12 5 5 13 21 18 13 16 20 20 17 16 16 15 15 16 16 15 15 15 15 15 14 14
11 10 9 9 8 9 10 11 11 10 8 7 7 7 5 2 3 4 8 11 12 8 3 4 7 7 6 4 3 4 1 4 9 13 14 14 16 16 14 12 11 8 6 6 6 4 3 3 4 4 5 6 4 3 1 3 3 2 6 16 18 14 13 14 8 7 16 23 19 14 17 20 19 16 16 17 16 16 16 17 16 15 15 16 16 15 14
11 9 8 7 7 8 9 11 11 8 7 8 9 8 7 6 5 6 10 12 10 7 3 2 3 3 3 5 4 1 4 7 11 14 14 14 15 14 10 10 10 8 5 4 3 3 3 4 3 3 4 4 3 2 2 2 3 4 9 15 17 15 14 14 11 10 17 23 18 12 15 21 19 15 16 18 17 16 17 18 17 16 16 17 17 16 15
10 8 7 6 6 7 9 10 8 7 7 7 6 5 8 11 10 10 12 13 10 5 3 3 3 3 4 5 2 2 5 6 10 11 9 9 13 13 10 10 9 6 3 2 3 3 3 3 3 3 3 2 1 2 3 2 4 8 11 13 15 15 15 15 15 14 19 24 18 10 13 20 20 17 18 19 18 18 18 18 18 18 18 18 17 16 14
9 7 5 4 6 7 7 6 5 5 6 5 3 3 7 11 11 10 11 12 8 3 3 4 3 3 3 2 1 2 2 4 8 8 6 7 11 11 9 7 4 2 2 3 3 2 2 2 3 3 2 1 1 2 3 4 7 12 13 13 14 16 17 18 17 17 21 25 19 11 14 20 20 19 20 20 20 19 19 18 18 18 18 18 17 15 14
9 7 5 4 5 4 2 1 2 3 2 2 2 3 6 9 8 7 9 10 6 2 1 2 2 2 2 1 1 2 2 3 6 6 6 8 8 6 6 5 2 1 2 2 1 1 2 3 3 2 1 2 3 3 4 7 10 13 15 16 17 18 20 20 20 21 24 23 17 14 17 21 20 21 21 20 20 20 19 19 18 17 18 19 17 14 13
9 7 4 3 3 1 2 2 2 2 2 1 1 3 7 9 9 9 8 7 5 4 3 2 3 3 3 3 3 4 3 2 4 3 4 6 5 4 3 3 2 2 2 1 0 1 3 3 3 2 2 4 5 6 8 9 9 10 13 15 17 19 18 17 19 24 24 18 14 16 21 23 22 22 22 22 21 20 19 19 18 16 16 17 16 14 13
9 6 3 3 2 3 4 3 2 2 3 5 6 7 8 9 9 9 8 5 4 5 4 3 4 5 4 3 4 4 4 1 2 2 3 4 4 3 2 2 2 2 1 0 0 2 2 2 1 2 3 5 8 10 11 9 8 9 9 12 16 19 18 16 20 26 26 21 19 23 27 26 26 25 24 22 22 20 18 17 16 14 13 14 15 14 13
10 6 4 4 4 5 5 4 2 3 8 10 8 6 5 6 6 5 6 5 4 4 5 5 6 7 6 5 5 6 4 1 1 1 2 2 2 1 1 1 2 2 1 1 2 4 2 1 1 2 3 3 8 14 15 12 10 11 10 10 14 19 19 17 18 22 21 19 21 26 28 27 27 27 25 23 21 20 19 17 15 14 13 13 13 12 11
10 6 4 5 5 6 6 4 3 7 11 11 7 3 4 5 4 3 4 4 3 4 6 5 7 10 11 8 6 5 3 2 1 1 3 3 2 2 2 1 2 2 1 1 3 4 3 1 1 3 3 3 9 16 18 16 14 13 11 10 13 18 20 18 16 16 15 14 17 22 24 23 23 23 24 23 22 21 21 19 16 15 14 12 11 10 9
9 6 5 5 6 6 5 4 6 9 10 7 4 1 2 3 3 3 4 3 2 4 7 6 4 6 11 12 9 5 4 3 1 1 3 3 2 2 2 2 2 2 2 1 3 4 2 2 2 2 3 5 9 13 14 16 18 17 13 10 12 17 20 18 16 16 15 13 15 20 22 21 20 20 20 20 20 20 20 19 17 15 14 12 10 8 7
7 6 5 5 4 5 6 7 8 8 5 3 2 2 1 2 3 3 4 3 2 3 7 8 5 4 7 11 12 9 6 3 1 1 1 2 3 2 2 2 1 1 1 3 4 3 2 2 3 3 4 7 9 10 11 14 17 17 15 12 13 17 19 18 16 16 14 11 12 16 19 20 20 18 17 17 18 19 18 18 17 16 14 12 9 8 6
6 6 5 4 4 7 7 6 6 6 3 1 2 1 1 1 2 2 2 4 4 3 5 7 6 4 5 8 9 8 7 4 1 0 1 3 3 2 2 1 1 1 2 3 3 2 2 3 3 3 3 4 6 7 9 12 14 16 15 13 14 16 17 16 16 15 14 11 11 12 15 16 17 17 17 17 18 19 18 17 16 15 14 12 9 7 6
7 6 5 3 4 7 6 4 5 5 2 0 2 3 3 3 3 2 1 3 4 4 5 8 8 6 6 7 8 7 6 5 2 1 2 1 1 2 2 1 2 2 3 3 2 2 2 3 4 6 7 6 5 5 7 10 14 16 16 15 15 16 17 17 16 15 15 14 12 12 13 14 15 17 18 19 18 18 18 18 17 16 13 11 9 9 9
7 7 4 1 2 5 4 2 2 4 3 1 2 2 2 3 3 3 3 3 2 0 3 8 11 9 7 8 7 5 4 4 3 2 0 1 0 1 1 1 2 2 2 2 2 2 2 2 4 8 11 10 6 4 6 10 14 16 17 17 18 18 18 19 18 17 16 16 15 14 14 14 15 16 18 19 19 18 17 18 18 16 14 13 12 12 11
7 6 4 1 1 4 4 2 1 2 2 2 4 5 4 3 3 4 5 5 3 2 4 3 8 9 8 7 6 4 4 5 3 1 1 2 2 0 1 0 1 2 2 2 3 4 4 2 3 5 7 7 3 2 5 9 14 17 18 18 19 20 19 19 20 18 17 16 17 16 15 14 15 17 19 20 20 19 18 18 18 17 15 14 14 13 11
6 5 3 1 1 2 3 3 3 3 3 4 6 9 9 7 7 8 8 8 7 5 6 4 3 7 6 5 5 3 3 4 3 1 0 1 1 1 1 2 2 2 2 3 5 4 3 3 6 8 9 7 5 4 3 7 13 18 20 20 20 20 21 21 21 21 19 18 19 19 16 13 14 18 20 21 21 21 19 19 19 18 16 14 13 12 11
5 3 3 2 1 2 3 3 4 6 6 5 6 7 8 8 8 10 10 9 8 7 5 2 1 3 4 4 4 2 1 2 3 2 1 1 1 0 1 2 2 2 2 4 4 2 2 5 8 9 8 7 7 6 5 6 10 15 19 21 21 21 21 22 22 22 21 20 20 20 17 14 14 17 20 21 21 20 20 20 20 19 17 15 14 12 12
4 3 2 2 2 3 3 3 3 5 7 8 8 7 6 7 9 10 10 10 10 9 6 3 2 2 2 2 3 2 1 2 2 2 2 2 2 2 1 2 3 4 3 2 2 5 9 11 11 9 8 8 7 6 5 6 9 12 16 19 21 21 22 22 22 22 22 22 21 20 18 16 15 17 20 21 20 20 20 20 20 20 18 16 14 13 12
6 4 3 4 3 2 2 2 2 3 4 6 6 6 6 6 8 8 7 7 9 9 6 5 4 2 1 1 1 1 2 2 2 2 3 3 3 2 3 3 4 3 3 3 5 9 13 13 11 10 10 9 8 6 4 5 7 11 15 17 19 21 22 22 22 22 22 22 21 20 19 18 16 17 19 21 20 20 20 21 21 19 18 16 15 13 11
6 5 5 6 7 5 3 3 3 3 3 3 2 2 3 4 5 5 4 3 5 5 5 4 3 2 1 1 1 1 2 2 3 3 3 3 3 3 4 5 4 3 4 6 8 8 9 8 8 9 9 8 8 8 6 4 5 8 12 16 19 20 21 22 22 22 22 21 21 20 19 18 16 16 18 19 19 19 21 22 21 20 18 17 15 13 11
5 4 5 7 9 9 8 7 6 5 5 5 5 6 6 5 4 5 4 3 4 6 6 5 3 2 1 2 2 2 2 2 2 3 3 3 3 3 3 4 5 7 10 11 10 8 8 8 8 8 8 7 7 8 8 8 7 8 11 16 18 20 22 23 23 22 21 21 20 20 19 19 18 17 19 20 21 21 22 23 22 21 19 17 15 12 10
Wind_Direction
351 353 356 355 354 354 354 353 353 355 360 5 7 11 18 14 21 64 125 155 156 152 150 127 163 219 261 282 266 275 279 268 303 325 255 238 216 138 189 240 215 172 265 188 198 226 159 169 242 204 250 235 208 279 304 281 184 229 152 164 193 171 113 348 314 93 105 102 104 50 2 126 158 164 77 151 168 145 199 254 342 322 292 282 286 268 129
346 348 352 354 353 353 353 352 352 355 359 2 3 4 3 353 354 66 110 156 155 169 210 177 200 235 279 304 288 285 264 243 277 298 287 279 165 139 202 226 177 116 51 112 118 278 198 203 241 190 216 226 183 321 315 171 157 253 145 171 193 190 265 5 246 184 130 120 134 79 10 6 354 0 5 335 23 116 153 291 321 288 273 266 276 269 76
344 344 347 351 352 352 351 350 350 353 357 359 360 359 357 348 335 65 65 167 169 108 133 139 179 209 299 297 307 311 267 239 258 264 268 268 190 164 212 196 141 111 95 107 91 8 259 208 204 169 220 239 46 356 322 202 136 117 122 326 257 136 304 255 229 211 155 121 122 31 344 322 317 339 345 336 315 169 217 271 227 242 249 188 250 270 80
343 342 342 346 349 350 351 348 347 349 353 357 359 360 0 359 13 28 24 135 143 91 89 63 198 163 96 264 292 312 269 285 288 256 238 237 189 122 53 155 120 96 97 88 63 30 4 8 123 170 243 259 2 337 324 352 71 118 119 83 102 102 26 22 78 93 109 103 89 51 5 329 332 347 345 337 307 214 217 239 228 239 238 200 235 303 106
343 342 340 341 344 347 349 347 343 344 350 354 358 0 2 10 34 356 357 11 52 88 81 35 19 151 169 258 253 258 265 322 321 248 206 235 209 63 25 66 151 194 163 130 91 26 4 21 36 323 304 290 261 294 348 13 342 310 62 56 91 125 83 68 84 94 110 111 97 70 45 24 1 1 353 340 325 218 207 224 221 189 248 236 163 124 131
343 342 340 338 339 342 346 346 340 338 346 352 356 359 0 6 25 4 347 340 105 119 18 355 345 240 226 226 231 265 275 328 319 269 291 320 226 198 152 86 121 212 175 139 137 125 26 31 357 293 299 294 281 7 38 17 335 318 352 41 57 122 109 114 106 110 122 115 95 80 58 10 339 3 2 346 332 253 210 213 197 199 246 228 131 132 118
341 343 341 337 336 338 342 344 337 333 342 348 353 2 10 4 356 356 341 303 264 278 301 317 308 256 240 230 226 237 239 285 295 272 289 313 294 238 213 226 298 176 158 136 144 181 180 148 230 233 232 276 261 72 25 259 18 340 335 55 52 73 97 129 128 119 122 112 92 88 75 353 318 353 359 347 333 293 221 122 145 183 161 124 129 120 92
339 342 341 337 335 336 340 342 336 328 336 346 355 7 16 2 334 319 323 298 272 283 294 297 291 271 226 220 223 214 222 252 313 271 248 243 256 217 190 181 155 150 167 157 160 189 195 158 147 198 194 207 202 179 240 237 63 358 313 44 22 18 124 151 149 114 115 121 97 81 74 274 287 354 358 352 335 295 234 110 122 143 131 132 131 114 89
338 339 339 337 335 336 339 340 334 327 338 350 359 6 10 4 348 339 334 304 273 292 299 287 296 274 206 201 214 208 214 208 347 279 243 226 241 222 175 157 130 91 118 152 157 179 186 164 134 184 188 334 285 221 237 231 215 54 254 345 8 51 131 176 180 122 139 142 116 91 242 226 173 30 6 352 330 292 224 106 97 130 151 148 131 110 98
336 337 337 336 335 336 338 339 337 334 345 354 1 1 5 4 353 351 353 304 293 313 344 146 228 251 235 205 233 264 263 207 312 289 240 234 260 223 169 156 134 104 137 167 176 181 181 179 265 235 240 305 317 205 208 225 248 231 177 138 22 110 147 167 189 164 138 123 130 215 238 225 91 36 20 354 326 309 310 71 49 39 147 153 129 106 100
334 335 334 334 334 336 337 338 339 346 350 357 2 358 359 1 352 358 160 253 272 2 298 237 222 252 12 35 336 305 291 241 231 251 243 284 283 200 166 151 130 141 168 168 171 174 173 177 224 245 315 41 81 97 114 110 353 326 215 179 79 123 138 137 302 235 117 89 306 249 259 21 41 94 131 158 295 301 310 1 20 9 32 116 107 100 97
329 331 331 332 332 334 337 337 337 353 359 358 357 354 354 352 341 335 176 233 283 22 252 241 252 296 311 320 312 292 275 267 258 247 246 292 313 192 172 152 124 159 170 168 163 153 141 126 107 52 16 33 78 91 82 60 29 14 31 171 135 118 108 114 54 58 105 62 315 286 130 7 7 72 143 166 229 282 300 320 346 357 12 90 102 100 96
323 326 327 328 329 331 335 335 330 343 356 353 351 350 349 344 334 328 146 231 265 248 280 286 284 283 284 290 291 285 282 286 280 253 237 244 253 207 191 190 180 161 165 172 161 140 120 60 18 303 344 356 10 101 61 41 27 36 45 29 139 139 133 133 88 73 119 157 304 267 233 297 334 334 350 128 152 278 286 298 332 350 346 31 100 105 99
318 321 321 324 326 328 332 332 324 330 348 347 344 344 343 339 316 278 221 239 264 239 274 290 290 290 296 300 298 300 299 298 292 240 215 222 226 215 210 215 188 164 165 170 152 125 108 7 48 194 322 345 265 206 56 36 29 37 35 20 104 137 147 159 150 124 139 156 130 29 326 310 313 306 306 135 162 221 265 293 320 330 306 322 88 109 110
313 317 317 320 323 324 328 325 311 318 342 343 337 335 334 330 301 260 226 210 280 277 240 240 269 344 337 323 319 314 310 314 312 236 205 202 196 199 207 203 176 168 169 161 121 82 68 161 167 203 218 207 208 216 325 352 34 40 37 54 78 86 153 186 198 175 127 140 124 108 163 210 181 177 176 209 215 185 175 237 316 255 227 240 151 135 134
308 311 315 319 318 319 323 320 304 310 335 337 332 328 326 326 300 244 223 204 249 288 223 213 247 320 318 308 305 290 280 319 325 285 259 169 152 159 171 172 170 176 176 136 76 71 105 146 190 203 188 182 189 179 325 310 92 82 60 76 81 70 61 121 179 183 161 186 198 168 188 209 141 155 182 251 243 193 178 183 256 245 231 221 169 152 135
302 306 312 316 313 313 318 317 306 309 324 328 325 323 324 325 303 256 233 206 225 265 264 255 267 288 296 292 294 283 287 310 312 296 286 95 110 126 148 154 157 167 166 125 62 71 99 98 151 188 182 179 198 161 143 244 149 142 127 67 76 74 68 152 203 191 173 196 216 205 218 152 114 156 259 287 240 205 204 206 122 172 219 269 142 127 101
298 301 306 309 307 305 309 309 302 303 314 320 317 317 321 323 311 271 241 220 233 271 278 269 261 254 235 256 293 318 321 315 316 310 292 284 1 32 156 153 152 154 144 117 92 116 111 121 209 221 147 130 255 256 145 163 176 133 120 63 65 68 53 321 213 181 180 200 197 213 269 96 88 327 326 312 200 204 243 334 82 131 167 351 63 96 82
298 299 297 299 300 297 298 303 302 302 307 311 308 306 309 315 315 281 252 235 230 254 260 250 246 250 256 278 284 286 294 293 291 295 269 138 36 7 103 139 146 123 92 95 111 112 138 150 204 269 165 139 220 237 117 129 187 60 108 229 207 138 114 83 179 151 151 192 190 241 235 98 22 340 333 177 214 250 345 63 87 105 104 90 96 102 99
297 296 288 289 295 289 283 287 293 299 304 303 297 293 296 306 309 283 259 240 237 263 272 270 263 261 263 269 271 276 284 280 266 254 211 357 352 2 110 157 165 125 93 134 142 140 204 165 133 251 204 130 118 170 117 102 188 244 284 289 307 165 183 169 161 139 103 173 187 214 187 80 13 345 268 194 283 30 109 105 92 85 89 98 107 114 118
292 291 284 284 290 285 278 278 282 291 297 298 296 291 292 304 309 294 271 252 244 265 280 278 263 260 261 262 261 260 263 258 249 254 292 309 315 307 173 202 195 164 135 142 149 138 233 153 130 192 156 79 26 214 144 132 149 157 296 288 196 183 256 222 159 189 238 192 165 143 351 8 358 335 258 121 110 130 128 115 105 103 105 110 115 121 124
286 285 282 282 283 281 279 279 281 288 291 293 295 291 288 298 303 297 283 265 255 260 270 276 278 275 269 262 256 254 257 258 259 265 274 285 290 268 262 279 250 184 159 133 129 135 162 158 151 159 148 133 157 153 67 185 173 147 174 259 247 126 330 352 120 145 274 355 52 33 355 353 0 44 103 107 124 135 132 119 115 114 116 118 121 125 127
279 281 282 280 279 279 277 276 277 281 284 287 288 285 283 285 288 289 287 278 273 277 283 284 281 277 272 262 253 251 254 255 258 261 258 254 257 263 258 248 220 172 172 175 170 143 154 156 141 143 164 163 144 133 148 244 211 144 152 241 338 34 125 122 118 138 152 42 32 31 25 27 51 90 103 109 120 127 126 120 117 116 117 120 123 128 131
275 278 280 276 276 278 279 276 275 273 276 281 282 279 278 275 279 290 294 290 288 294 298 290 278 274 273 250 230 235 244 246 250 256 246 230 224 237 248 220 199 171 177 187 175 142 135 127 92 172 182 176 160 155 168 189 192 168 156 139 146 198 188 133 110 156 169 135 104 86 67 69 84 96 102 107 116 127 130 123 116 117 118 118 120 126 131
275 276 275 269 270 277 280 279 276 274 276 280 280 278 277 276 278 286 291 291 286 290 303 296 283 274 259 237 226 228 238 240 235 233 227 217 211 203 164 191 200 197 179 167 158 146 130 112 108 179 163 176 185 187 187 184 182 185 181 174 164 177 179 154 119 134 122 102 111 104 97 110 117 117 121 121 122 130 131 122 117 118 117 117 121 126 130
273 272 269 264 265 273 277 277 278 278 278 279 279 278 277 276 276 277 279 283 276 258 263 282 282 278 280 269 241 218 226 231 226 225 224 217 213 211 215 249 241 204 174 157 151 148 127 111 143 172 156 182 188 173 97 125 125 144 204 174 126 144 160 155 125 129 108 91 147 148 122 117 130 133 133 133 130 132 132 126 121 121 120 121 126 129 132
271 267 265 263 264 270 274 276 278 278 278 280 280 279 279 278 276 271 263 259 259 252 249 265 276 295 305 290 238 203 219 228 227 229 226 218 217 220 224 237 236 190 170 156 149 144 123 112 142 105 117 145 145 115 59 110 132 138 161 159 154 152 154 147 144 160 161 157 170 171 148 126 150 147 139 139 137 135 134 131 128 126 124 126 128 129 130
266 264 264 262 263 267 270 273 276 277 281 283 281 282 284 281 273 261 249 238 236 238 254 281 289 300 310 297 208 187 213 226 230 235 227 212 209 211 209 207 200 186 173 160 152 136 98 140 146 116 125 146 146 126 56 115 161 223 182 176 181 180 173 172 173 197 136 157 168 171 147 129 149 149 138 138 139 137 137 137 134 133 130 130 130 129 127
258 260 262 261 263 267 269 272 275 278 283 285 284 289 292 285 272 258 243 231 229 235 261 292 292 292 299 290 216 199 222 230 232 233 221 207 201 196 188 186 190 189 176 158 154 126 89 143 142 132 159 168 162 153 139 159 182 247 174 179 185 190 183 177 169 18 141 159 165 167 145 138 149 147 137 138 138 136 138 138 137 138 137 134 132 130 127
260 257 261 264 265 268 271 274 276 281 284 284 288 296 293 276 270 261 238 224 223 227 254 295 289 288 299 300 283 255 250 236 226 218 208 201 194 184 178 181 188 186 169 152 157 150 133 144 144 153 166 163 157 158 167 170 185 284 185 183 187 190 182 173 144 56 158 159 159 159 150 148 149 144 139 141 139 134 134 135 136 139 139 138 136 133 131
256 254 259 264 265 268 273 276 278 282 283 276 274 276 252 248 271 255 218 210 211 213 236 270 274 292 304 303 296 313 301 240 205 197 191 188 186 180 177 180 182 176 165 158 160 158 152 151 148 155 162 164 161 152 149 170 182 218 193 187 188 187 179 172 143 107 152 158 155 150 149 150 148 146 145 145 142 138 135 133 135 137 136 135 134 130 130
242 246 255 261 264 268 276 282 285 283 271 253 248 240 221 230 271 226 191 188 193 193 214 278 280 294 303 301 315 322 308 164 168 170 166 167 171 172 172 175 171 162 158 160 155 145 140 146 146 149 163 169 161 133 130 184 188 178 179 184 186 184 180 179 166 138 157 163 154 140 148 156 156 155 155 152 149 146 140 135 135 136 133 132 130 127 127
229 238 248 256 263 272 284 292 292 281 261 258 261 248 219 205 210 199 184 181 184 181 187 272 287 287 289 310 325 293 161 155 158 157 152 157 166 163 155 156 156 145 136 146 149 142 142 141 138 146 157 159 150 146 172 189 184 173 173 178 184 185 184 184 179 164 168 171 164 150 164 171 166 158 155 151 149 150 143 137 137 138 135 133 131 129 129
227 230 235 245 265 283 294 295 289 278 269 270 276 253 210 200 201 200 188 182 180 183 207 248 286 292 286 307 339 143 161 163 162 157 148 157 167 161 146 146 148 137 121 134 149 153 147 136 140 150 149 137 140 183 192 183 173 172 169 171 181 185 183 182 182 176 176 180 182 180 177 172 163 154 152 149 148 148 145 141 142 142 139 137 135 134 135
226 218 215 243 281 295 299 292 274 270 271 262 248 222 205 202 207 212 196 179 170 181 225 232 260 289 286 295 56 111 132 154 161 158 146 151 161 158 147 141 142 146 154 157 157 156 144 142 159 161 148 149 200 207 195 175 173 177 176 174 176 176 173 175 180 180 180 185 189 187 176 171 164 156 154 152 150 150 148 146 147 146 142 139 138 138 137
214 198 201 262 297 302 307 305 247 235 232 219 208 205 196 191 193 196 185 177 175 201 272 260 255 261 275 291 345 14 33 123 141 138 137 147 152 152 146 138 126 133 147 143 165 192 164 166 182 185 161 184 211 212 196 184 180 184 189 189 185 182 181 181 180 179 181 187 190 181 174 174 169 162 159 157 155 154 153 152 152 150 145 142 141 140 133
196 182 198 271 291 208 146 110 98 129 132 131 153 150 151 155 158 162 171 188 217 242 270 293 266 255 274 291 304 335 358 127 138 111 119 140 134 112 117 128 126 142 147 131 75 139 153 169 201 224 200 206 219 216 206 201 195 195 201 203 198 192 189 185 180 176 175 177 178 174 174 175 172 168 165 163 161 162 161 160 159 157 149 144 141 137 129
185 179 203 242 222 186 165 133 94 116 161 164 145 127 131 144 154 167 183 205 235 237 234 246 252 253 265 272 284 324 352 100 151 95 91 127 126 97 81 89 112 135 164 217 125 129 142 156 205 255 236 229 230 223 215 213 215 214 217 218 209 199 191 185 181 176 170 165 170 175 176 175 174 174 172 171 170 171 171 168 165 162 152 142 137 133 127
181 179 202 219 208 185 164 147 132 168 173 169 157 141 149 158 156 165 182 193 212 218 216 228 241 239 236 249 279 304 326 341 194 121 98 112 126 129 117 100 128 143 215 257 176 181 199 183 184 252 250 228 231 232 228 221 220 220 218 218 213 204 195 189 187 184 181 182 188 188 185 182 181 180 179 177 176 176 177 173 168 164 158 148 139 134 130
180 188 214 217 189 162 151 151 159 165 170 176 180 179 172 176 180 169 161 170 210 215 205 218 240 237 232 238 265 293 306 315 318 138 129 115 98 125 141 139 146 166 229 242 166 180 216 224 196 240 246 219 232 240 237 228 223 222 217 211 209 204 199 194 191 193 198 206 205 197 192 191 189 186 184 183 180 178 178 177 173 169 166 159 149 140 134
183 196 211 203 180 166 164 163 164 171 180 193 207 195 160 181 202 190 168 178 234 218 204 208 223 228 224 223 224 239 270 292 313 133 133 116 98 129 144 132 136 180 237 209 150 161 208 237 212 231 242 234 237 241 236 226 221 220 217 208 197 196 197 196 190 189 196 204 202 196 192 192 193 192 191 190 187 182 180 180 177 174 172 169 162 153 150
185 194 192 183 173 168 164 160 168 182 197 203 194 202 203 187 186 187 196 220 248 219 203 205 204 205 216 216 214 223 246 271 282 241 149 130 133 135 110 103 145 222 213 153 142 150 203 237 235 243 251 248 243 233 222 217 216 215 213 202 185 185 192 193 188 186 190 193 196 196 194 194 196 197 197 195 193 188 184 183 181 179 179 177 174 170 174
183 188 185 180 164 155 154 167 191 206 214 151 159 197 227 182 188 209 221 220 226 219 199 198 202 213 213 205 203 212 226 233 236 8 94 125 137 126 89 97 186 193 142 138 152 181 207 218 238 250 239 236 234 223 214 210 206 205 205 195 181 181 188 189 184 182 182 181 186 193 194 195 198 201 201 201 197 191 188 187 186 184 182 181 182 190 198
187 187 190 198 171 158 154 172 202 208 218 190 176 188 197 197 200 211 192 185 196 211 206 200 200 203 197 187 185 193 208 213 194 101 67 75 121 133 153 190 177 141 137 156 185 218 223 231 250 256 252 250 247 230 213 201 195 194 196 190 181 182 189 190 185 182 180 180 181 182 185 191 197 200 202 202 198 193 191 190 188 185 184 186 194 204 211
185 187 190 195 174 173 168 165 192 208 229 237 185 188 207 205 192 196 208 201 176 153 223 214 209 202 189 183 182 177 174 174 159 128 178 261 326 118 200 179 126 141 180 200 198 215 236 240 242 248 256 263 263 233 204 196 191 190 192 189 185 187 191 193 191 187 182 180 178 176 177 183 189 193 197 197 195 194 195 193 188 187 190 196 204 210 214
183 191 193 183 187 190 185 163 163 191 205 214 206 203 206 210 208 217 229 231 234 348 352 270 217 205 190 181 185 183 162 157 149 116 172 173 152 37 302 278 151 178 209 216 213 224 235 232 218 235 252 266 272 215 190 190 191 193 194 192 190 192 194 196 196 193 187 182 181 179 178 181 184 186 188 189 191 195 198 195 191 192 197 204 209 213 214
186 198 201 207 227 204 198 208 223 226 225 225 222 220 224 236 245 248 251 254 257 289 338 346 220 205 197 187 192 201 174 157 144 55 37 160 130 24 299 253 223 200 199 218 230 237 242 241 244 252 259 263 263 253 215 191 191 196 200 199 196 195 196 198 199 197 192 187 185 184 183 183 183 183 183 186 190 194 196 196 197 199 204 209 211 211 212
189 196 195 192 207 209 205 215 234 245 251 254 252 245 241 243 248 252 258 263 264 268 292 323 190 188 189 191 197 200 163 151 150 131 131 172 173 125 194 230 232 218 218 232 236 230 230 248 258 268 273 266 256 250 239 215 200 198 201 203 203 201 200 200 200 198 195 192 190 190 189 187 186 183 183 186 191 193 195 198 202 205 207 208 208 208 210
212 223 220 233 252 247 241 246 258 258 256 259 266 266 252 247 257 266 268 266 262 259 256 244 216 191 169 173 187 194 202 198 176 144 153 181 187 173 174 200 213 218 222 222 227 246 258 264 269 275 275 269 263 256 240 221 206 200 200 203 205 205 204 203 202 199 197 194 193 193 193 191 189 186 186 188 192 196 198 202 206 207 208 209 209 209 212
233 249 241 237 244 243 235 237 248 256 256 257 258 260 260 266 279 289 286 265 251 243 231 216 214 208 125 109 150 198 204 184 145 149 181 191 176 166 191 206 211 216 210 198 223 252 267 275 279 277 273 271 269 264 244 213 202 201 201 201 201 202 203 203 201 199 197 196 195 196 196 194 192 191 190 190 194 199 204 208 210 210 208 207 209 212 218
234 250 245 241 246 256 270 276 271 274 282 287 295 307 308 302 306 319 320 272 228 208 191 182 176 143 112 155 185 170 152 144 141 165 200 201 170 171 203 212 210 212 218 223 237 260 281 294 293 287 284 280 272 263 256 244 222 208 202 200 199 199 199 200 200 199 197 195 195 197 198 198 197 195 193 193 196 202 206 208 208 206 205 205 209 215 223
218 235 249 251 252 259 269 276 276 276 283 292 304 315 320 322 325 325 310 264 218 196 185 175 156 131 153 186 166 139 144 163 172 184 200 202 191 193 212 221 221 226 233 243 256 272 286 291 292 293 296 294 279 258 244 238 232 216 204 201 199 196 194 194 195 196 195 194 196 198 199 199 198 197 195 195 198 203 206 205 202 200 201 205 209 215 223